Jackson, MN

12:48 PM CST on November 15, 2019 (GMT -0600)
Jackson Municipal

Weather History for KMJQ - August, 2019

Change the Weather History Date:

Saturday, August 31, 2019

  Actual Average Record
Temperature  
Mean Temperature 60 °F -  
Max Temperature 64 °F 76 °F 87 °F (2013)
Min Temperature 55 °F 55 °F 48 °F (2001)
Degree Days  
Heating Degree Days 6    
Growing Degree Days 10 (Base 50)    
Moisture  
Dew Point 53 °F    
Average Humidity 81    
Maximum Humidity 94    
Minimum Humidity 64    
Precipitation  
Precipitation 0.14 in - - ()
Sea Level Pressure  
Sea Level Pressure 30.24 in    
Wind  
Wind Speed 3 mph (SE)    
Max Wind Speed 12 mph    
Max Gust Speed -    
Visibility 10 miles    
Events      
Averages and records for this station are not official NWS values.
T = Trace of Precipitation, MM = Missing Value Source: NWS Daily Summary

Daily Weather History Graph

Daily Weather History Graph

Search for Another Location

Airport or City:

Astronomy

Aug. 31, 2019 Rise Set
Actual Time 6:42 AM CDT 7:57 PM CDT
Civil Twilight 6:12 AM CDT 8:27 PM CDT
Nautical Twilight 5:37 AM CDT 9:02 PM CDT
Astronomical Twilight 4:59 AM CDT 9:40 PM CDT
Moon 8:00 AM CDT (8/31) 9:08 PM CDT (8/31)
Length of Visible Light 14h 14m
Length of Day
13h 15m
New Moon, 3% of the Moon is Illuminated
Aug 31
New Moon
Sep 5
First Quarter
Sep 13
Full
Sep 21
Last Quarter
Sep 28
New

Hourly Weather History & Observations

Time (CDT) Temp. Dew Point Humidity Pressure Visibility Wind Dir Wind Speed Gust Speed Precip Events Conditions
12:15 AM 59.0 °F 53.6 °F 82% 30.28 in 10.0 mi Calm Calm - N/A   Overcast
12:35 AM 57.2 °F 53.6 °F 88% 30.28 in 10.0 mi Calm Calm - N/A   Overcast
12:55 AM 57.2 °F 53.6 °F 88% 30.28 in 10.0 mi Calm Calm - N/A   Overcast
1:15 AM 59.0 °F 53.6 °F 82% 30.29 in 7.0 mi Calm Calm - N/A   Scattered Clouds
1:35 AM 59.0 °F 53.6 °F 82% 30.29 in 2.5 mi Calm Calm - 0.02 in   Mostly Cloudy
1:55 AM 57.2 °F 53.6 °F 88% 30.29 in 3.0 mi Calm Calm - 0.05 in   Overcast
2:15 AM 55.4 °F 53.6 °F 94% 30.28 in 7.0 mi Calm Calm - 0.04 in   Overcast
2:35 AM 55.4 °F 53.6 °F 94% 30.27 in 10.0 mi Calm Calm - 0.06 in   Overcast
2:55 AM 55.4 °F 53.6 °F 94% 30.27 in 7.0 mi Calm Calm - 0.08 in   Overcast
3:15 AM 55.4 °F 53.6 °F 94% 30.27 in 10.0 mi Calm Calm - N/A   Overcast
3:35 AM 55.4 °F 53.6 °F 94% 30.27 in 10.0 mi Calm Calm - N/A   Overcast
3:55 AM 55.4 °F 53.6 °F 94% 30.26 in 10.0 mi ENE 4.6 mph - N/A   Overcast
4:15 AM 55.4 °F 51.8 °F 88% 30.26 in 10.0 mi Calm Calm - N/A   Overcast
4:35 AM 55.4 °F 53.6 °F 94% 30.26 in 10.0 mi Calm Calm - 0.01 in   Overcast
4:55 AM 55.4 °F 53.6 °F 94% 30.25 in 10.0 mi East 3.5 mph - 0.01 in   Overcast
5:15 AM 55.4 °F 51.8 °F 88% 30.25 in 10.0 mi East 6.9 mph - N/A   Overcast
5:35 AM 55.4 °F 51.8 °F 88% 30.23 in 10.0 mi East 6.9 mph - N/A   Overcast
5:55 AM 55.4 °F 53.6 °F 94% 30.23 in 10.0 mi East 4.6 mph - N/A   Overcast
6:15 AM 55.4 °F 51.8 °F 88% 30.24 in 10.0 mi East 3.5 mph - N/A   Overcast
6:35 AM 55.4 °F 51.8 °F 88% 30.24 in 10.0 mi East 4.6 mph - N/A   Overcast
6:55 AM 55.4 °F 51.8 °F 88% 30.25 in 10.0 mi Calm Calm - N/A   Overcast
7:15 AM 55.4 °F 51.8 °F 88% 30.26 in 10.0 mi Calm Calm - N/A   Overcast
7:16 AM 55.4 °F 51.8 °F 88% 30.26 in 10.0 mi Calm Calm - N/A   Overcast
7:35 AM 55.4 °F 53.6 °F 94% 30.25 in 10.0 mi East 3.5 mph - N/A   Overcast
7:55 AM 55.4 °F 53.6 °F 94% 30.26 in 10.0 mi Calm Calm - N/A   Overcast
8:15 AM 57.2 °F 53.6 °F 88% 30.26 in 10.0 mi Calm Calm - N/A   Overcast
8:35 AM 59.0 °F 53.6 °F 82% 30.26 in 10.0 mi ESE 3.5 mph - N/A   Overcast
8:55 AM 59.0 °F 53.6 °F 82% 30.27 in 10.0 mi SSE 3.5 mph - N/A   Mostly Cloudy
9:15 AM 59.0 °F 51.8 °F 77% 30.28 in 10.0 mi Calm Calm - N/A   Overcast
9:35 AM 59.0 °F 51.8 °F 77% 30.28 in 10.0 mi Calm Calm - N/A   Overcast
9:55 AM 60.8 °F 53.6 °F 77% 30.27 in 10.0 mi SE 5.8 mph - N/A   Overcast
10:15 AM 60.8 °F 53.6 °F 77% 30.27 in 10.0 mi SE 6.9 mph - N/A   Overcast
10:35 AM 60.8 °F 53.6 °F 77% 30.27 in 10.0 mi SSE 6.9 mph - N/A   Mostly Cloudy
10:55 AM 60.8 °F 53.6 °F 77% 30.27 in 10.0 mi SE 9.2 mph - N/A   Mostly Cloudy
11:15 AM 60.8 °F 53.6 °F 77% 30.27 in 10.0 mi SSE 5.8 mph - N/A   Overcast
11:35 AM 60.8 °F 53.6 °F 77% 30.27 in 10.0 mi SE 6.9 mph - N/A   Overcast
11:55 AM 60.8 °F 53.6 °F 77% 30.27 in 10.0 mi SE 4.6 mph - N/A   Overcast
12:15 PM 62.6 °F 53.6 °F 72% 30.27 in 10.0 mi SE 6.9 mph - N/A   Overcast
12:35 PM 62.6 °F 55.4 °F 77% 30.27 in 10.0 mi SSE 5.8 mph - N/A   Overcast
12:55 PM 62.6 °F 53.6 °F 72% 30.26 in 10.0 mi South 6.9 mph - N/A   Overcast
1:15 PM 64.4 °F 53.6 °F 68% 30.25 in 10.0 mi SSE 4.6 mph - N/A   Overcast
1:35 PM 64.4 °F 53.6 °F 68% 30.26 in 10.0 mi South 8.1 mph - N/A   Mostly Cloudy
1:36 PM 64.4 °F 53.6 °F 68% 30.26 in 10.0 mi South 8.1 mph - N/A   Mostly Cloudy
1:55 PM 64.4 °F 53.6 °F 68% 30.25 in 10.0 mi South 9.2 mph - N/A   Overcast
2:15 PM 64.4 °F 55.4 °F 73% 30.25 in 10.0 mi South 9.2 mph - N/A   Overcast
2:35 PM 64.4 °F 53.6 °F 68% 30.24 in 10.0 mi South 10.4 mph - N/A   Overcast
2:55 PM 64.4 °F 55.4 °F 73% 30.24 in 10.0 mi South 11.5 mph - N/A   Overcast
2:56 PM 64.4 °F 55.4 °F 73% 30.24 in 10.0 mi South 9.2 mph - N/A   Overcast
3:15 PM 64.4 °F 55.4 °F 73% 30.23 in 10.0 mi SSE 8.1 mph - N/A   Overcast
3:35 PM 64.4 °F 55.4 °F 73% 30.23 in 10.0 mi SSE 6.9 mph - N/A   Overcast
3:55 PM 64.4 °F 51.8 °F 64% 30.22 in 10.0 mi South 6.9 mph - N/A   Overcast
4:15 PM 64.4 °F 53.6 °F 68% 30.22 in 10.0 mi South 10.4 mph - N/A   Overcast
4:35 PM 64.4 °F 53.6 °F 68% 30.22 in 10.0 mi South 8.1 mph - N/A   Overcast
4:55 PM 64.4 °F 53.6 °F 68% 30.22 in 10.0 mi South 6.9 mph - N/A   Scattered Clouds
5:15 PM 64.4 °F 51.8 °F 64% 30.21 in 10.0 mi SSE 10.4 mph - N/A   Clear
5:35 PM 64.4 °F 51.8 °F 64% 30.21 in 10.0 mi SSE 11.5 mph - N/A   Clear
5:55 PM 64.4 °F 51.8 °F 64% 30.21 in 10.0 mi SSE 10.4 mph - N/A   Clear
6:15 PM 64.4 °F 51.8 °F 64% 30.20 in 10.0 mi SSE 6.9 mph - N/A   Clear
6:35 PM 64.4 °F 53.6 °F 68% 30.20 in 10.0 mi ESE 8.1 mph - N/A   Scattered Clouds
6:55 PM 64.4 °F 53.6 °F 68% 30.20 in 10.0 mi ESE 8.1 mph - N/A   Clear
7:15 PM 62.6 °F 53.6 °F 72% 30.20 in 10.0 mi SE 8.1 mph - N/A   Clear
7:35 PM 60.8 °F 53.6 °F 77% 30.20 in 10.0 mi SE 4.6 mph - N/A   Scattered Clouds
7:55 PM 59.0 °F 53.6 °F 82% 30.20 in 10.0 mi SE 4.6 mph - N/A   Scattered Clouds
8:15 PM 59.0 °F 53.6 °F 82% 30.20 in 10.0 mi SE 5.8 mph - N/A   Scattered Clouds
8:35 PM 59.0 °F 53.6 °F 82% 30.21 in 10.0 mi SE 4.6 mph - N/A   Mostly Cloudy
8:55 PM 59.0 °F 53.6 °F 82% 30.21 in 10.0 mi SE 5.8 mph - N/A   Mostly Cloudy
9:35 PM 59.0 °F 53.6 °F 82% 30.21 in 10.0 mi SE 6.9 mph - N/A   Overcast
9:55 PM 59.0 °F 53.6 °F 82% 30.21 in 10.0 mi SE 6.9 mph - N/A   Overcast
10:15 PM 57.2 °F 53.6 °F 88% 30.21 in 10.0 mi SE 4.6 mph - N/A   Overcast
10:35 PM 57.2 °F 53.6 °F 88% 30.20 in 10.0 mi SE 5.8 mph - N/A   Scattered Clouds
10:55 PM 55.4 °F 53.6 °F 94% 30.20 in 10.0 mi SSE 5.8 mph - N/A   Scattered Clouds
11:15 PM 55.4 °F 53.6 °F 94% 30.20 in 10.0 mi SE 5.8 mph - N/A   Scattered Clouds
11:35 PM 57.2 °F 53.6 °F 88% 30.20 in 10.0 mi SSE 4.6 mph - N/A   Mostly Cloudy
11:36 PM 57.2 °F 53.6 °F 88% 30.20 in 10.0 mi SSE 4.6 mph - N/A   Mostly Cloudy
11:55 PM 57.2 °F 53.6 °F 88% 30.19 in 10.0 mi SE 5.8 mph - N/A   Overcast